This is the latest recevied weather packets stored in our database for station/object KB3FKJ. If no packets are shown the sender has not sent any weather packets the latest 10 day(s).
| Time | Temp. | Humidity | Pressure | Rain* | Wind** | Luminosity | Snow |
|---|---|---|---|---|---|---|---|
| 1777906794 | 16.11° C | 47% | 1010.9 hPa | 0 mm | - | 48 W/m² | - |
| 1777906491 | 16.11° C | 48% | 1011 hPa | 0 mm | - | 60 W/m² | - |
| 1777906187 | 15.56° C | 47% | 1011 hPa | 0 mm | - | 46 W/m² | - |
| 1777905883 | 15.56° C | 49% | 1010.9 hPa | 0 mm | - | 48 W/m² | - |
| 1777905580 | 15° C | 49% | 1011.1 hPa | 0 mm | - | 50 W/m² | - |
| 1777905277 | 15° C | 48% | 1011.2 hPa | 0 mm | - | 47 W/m² | - |
| 1777904974 | 15° C | 47% | 1011 hPa | 0 mm | - | 51 W/m² | - |
| 1777904671 | 15° C | 49% | 1011.2 hPa | 0 mm | - | 83 W/m² | - |
| 1777904363 | 15° C | 48% | 1011.3 hPa | 0 mm | - | 299 W/m² | - |
| 1777904060 | 14.44° C | 48% | 1011.1 hPa | 0 mm | - | 178 W/m² | - |
| 1777903756 | 14.44° C | 48% | 1011.2 hPa | 0 mm | - | 202 W/m² | - |
| 1777903452 | 14.44° C | 48% | 1011.3 hPa | 0 mm | - | 209 W/m² | - |
| 1777903149 | 13.89° C | 50% | 1011.3 hPa | 0 mm | - | 224 W/m² | - |
| 1777902845 | 13.89° C | 49% | 1011.3 hPa | 0 mm | - | 100 W/m² | - |
| 1777902543 | 13.89° C | 49% | 1011.3 hPa | 0 mm | - | 168 W/m² | - |
| 1777902239 | 13.89° C | 50% | 1011.3 hPa | 0 mm | - | 168 W/m² | - |
| 1777901938 | 13.89° C | 48% | 1011.4 hPa | 0 mm | - | 97 W/m² | - |
| 1777901635 | 13.33° C | 48% | 1011.4 hPa | 0 mm | - | 166 W/m² | - |
| 1777901332 | 13.33° C | 49% | 1011.4 hPa | 0 mm | - | 336 W/m² | - |
| 1777901030 | 13.33° C | 49% | 1011.4 hPa | 0 mm | - | 332 W/m² | - |
| 1777900727 | 13.33° C | 49% | 1011.3 hPa | 0 mm | - | 326 W/m² | - |
| 1777900424 | 12.78° C | 49% | 1011.6 hPa | 0 mm | - | 298 W/m² | - |
| 1777900121 | 12.78° C | 49% | 1011.7 hPa | 0 mm | - | 104 W/m² | - |
| 1777899818 | 12.78° C | 50% | 1011.6 hPa | 0 mm | - | 96 W/m² | - |
| 1777899514 | 12.78° C | 48% | 1011.7 hPa | 0 mm | - | 200 W/m² | - |
* Rain latest hour (hover to see other rain measurements)
** Current wind speed in m/s (hover to see current wind gust speed)